User: anonymous   Login
Location: Newark
(36.1358°N, 115.1208°W)
Time: 00:33:04
(UTC+00:00)
Language:

S-56A Canister/Altair - Orbit

View from above orbital plane
View from above orbital plane
View from above satellite
View from above satellite

Ground track
Ground track

The orbit data is extracted from the following two-line orbital elements,

1 00082U 61004B   21167.42889304 -.00000158  00000-0 -77207-4 0  9999
2 00082  38.8567 290.6328 1175646  40.1947 327.9973 12.26033698852481
Epoch (UTC): 16 June 2021 10:17:36
Eccentricity: 0.1175646
inclination: 38.8567°
perigee height: 632 km
apogee height: 2500 km
right ascension of ascending node: 290.6328°
argument of perigee: 40.1947°
revolutions per day: 12.26033698
mean anomaly at epoch: 327.9973°
orbit number at epoch: 85248

The dashed part of the orbit path shows where the satellite is in the earth's shadow,  

DLR